Torna al catalogo

COSMOS 416

AttivoMilitareLEO
NORAD 5215·PAYLOAD·🇷🇺 Russia

Lanciato May 7, 1971 da Plesetsk Cosmodrome

Loading…

Prossimi Passaggi (prossime 24 ore)

TLE

AggiornatoSource: Space-Track

Epoca: Sep 14, 2026, 23:21 UTC

1 05215U 71041F   26257.97339023  .00000007  00000-0  13926-3 0  9995
2 05215  74.0162 154.3160 0077955 256.5556 118.6266 12.58072780542081

Traccia COSMOS 416 in tempo reale con AllMySat

Download on the App Store